| time (UTC) | temp C | wind direction | speed KPH | gust KPH | rain 1hr cm | rain 24hr cm | rain mn cm | humidity % | barometer mb |
| 20260503021914 | 7 | 136 | 0.0 | 0.0 | 0.00 | 0.00 | 0.00 | 87 | 1019.6 |
| 20260503014913 | 8 | 136 | 0.0 | 1.6 | 0.00 | 0.00 | 0.00 | 87 | 1019.9 |
| 20260503013413 | 8 | 136 | 0.0 | 0.0 | 0.00 | 0.00 | 0.00 | 87 | 1020.0 |
| 20260503011913 | 8 | 136 | 0.0 | 3.2 | 0.00 | 0.00 | 0.00 | 87 | 1020.1 |
| 20260503010413 | 8 | 136 | 0.0 | 0.0 | 0.00 | 0.00 | 0.00 | 86 | 1020.1 |
| 20260503004913 | 8 | 136 | 1.6 | 3.2 | 0.00 | 0.00 | 0.00 | 85 | 1020.1 |
| 20260503003413 | 8 | 136 | 0.0 | 0.0 | 0.00 | 0.00 | 0.00 | 85 | 1020.2 |
| 20260503001913 | 8 | 136 | 0.0 | 0.0 | 0.00 | 0.00 | 0.00 | 84 | 1020.3 |
| 20260503000415 | 9 | 136 | 0.0 | 1.6 | 0.00 | 0.00 | 0.00 | 83 | 1020.4 |
| 20260502234912 | 10 | 136 | 0.0 | 1.6 | 0.00 | 0.00 | 0.00 | 82 | 1020.4 |
| 20260502233412 | 10 | 136 | 1.6 | 3.2 | 0.00 | 0.00 | 0.00 | 82 | 1020.5 |
| 20260502231912 | 10 | 136 | 0.0 | 0.0 | 0.00 | 0.00 | 0.00 | 80 | 1020.6 |
| 20260502230412 | 10 | 136 | 0.0 | 0.0 | 0.00 | 0.00 | 0.00 | 78 | 1020.7 |
| 20260502224912 | 10 | 136 | 0.0 | 0.0 | 0.00 | 0.00 | 0.00 | 79 | 1020.7 |
| 20260502223412 | 11 | 136 | 0.0 | 0.0 | 0.00 | 0.00 | 0.00 | 76 | 1020.9 |
| 20260502221911 | 11 | 136 | 0.0 | 0.0 | 0.00 | 0.00 | 0.00 | 77 | 1020.9 |
| 20260502220412 | 11 | 136 | 0.0 | 0.0 | 0.00 | 0.00 | 0.00 | 75 | 1021.0 |
| 20260502203411 | 13 | 152 | 0.0 | 1.6 | 0.00 | 0.00 | 0.00 | 69 | 1021.3 |
| 20260502201912 | 14 | 152 | 1.6 | 3.2 | 0.00 | 0.00 | 0.00 | 67 | 1021.3 |
| 20260502194910 | 14 | 151 | 0.0 | 1.6 | 0.00 | 0.00 | 0.00 | 66 | 1021.1 |
| 20260502193410 | 15 | 151 | 0.0 | 3.2 | 0.00 | 0.00 | 0.00 | 65 | 1021.1 |
| 20260502191910 | 16 | 151 | 3.2 | 6.4 | 0.00 | 0.00 | 0.00 | 60 | 1021.0 |
| 20260502190410 | 17 | 194 | 1.6 | 3.2 | 0.00 | 0.00 | 0.00 | 57 | 1021.0 |
| 20260502184912 | 17 | 189 | 1.6 | 4.8 | 0.00 | 0.00 | 0.00 | 57 | 1020.8 |
| 20260502183412 | 17 | 159 | 1.6 | 6.4 | 0.00 | 0.00 | 0.00 | 55 | 1020.7 |
| 20260502181912 | 18 | 185 | 1.6 | 8.0 | 0.00 | 0.00 | 0.00 | 53 | 1020.6 |
| 20260502130411 | 23 | 192 | 1.6 | 3.2 | 0.00 | 0.00 | 0.00 | 46 | 1022.9 |
| 20260502123410 | 23 | 92 | 3.2 | 6.4 | 0.00 | 0.00 | 0.00 | 41 | 1023.2 |
| 20260502121910 | 22 | 67 | 3.2 | 6.4 | 0.00 | 0.00 | 0.00 | 39 | 1023.4 |
| 20260502120410 | 22 | 88 | 0.0 | 6.4 | 0.00 | 0.00 | 0.00 | 41 | 1023.5 |
| 20260502114910 | 22 | 340 | 1.6 | 4.8 | 0.00 | 0.00 | 0.00 | 38 | 1023.6 |
| 20260502113410 | 21 | 315 | 3.2 | 9.7 | 0.00 | 0.00 | 0.00 | 39 | 1023.7 |
| 20260502111910 | 21 | 45 | 0.0 | 4.8 | 0.00 | 0.00 | 0.00 | 42 | 1023.8 |
| 20260502110409 | 22 | 86 | 1.6 | 8.0 | 0.00 | 0.00 | 0.00 | 40 | 1024.0 |
| 20260502104914 | 22 | 40 | 4.8 | 11.3 | 0.00 | 0.00 | 0.00 | 40 | 1024.3 |
| 20260502103414 | 21 | 52 | 3.2 | 9.7 | 0.00 | 0.00 | 0.00 | 47 | 1024.3 |
| 20260502101914 | 20 | 78 | 3.2 | 8.0 | 0.00 | 0.00 | 0.00 | 42 | 1024.5 |
| 20260502100414 | 20 | 229 | 3.2 | 6.4 | 0.00 | 0.00 | 0.00 | 44 | 1024.7 |
| 20260502090414 | 17 | 306 | 3.2 | 11.3 | 0.00 | 0.00 | 0.00 | 50 | 1025.5 |